Location: Natural Bridges National Monument
(37.6093°N, 109.9767°W)
Time: 08:52:34
(UTC-07:00)

Cosmos 1727 Rocket - Visible Passes

Search period start: 20 February 2017 00:00
Search period end: 02 March 2017 00:00
Orbit: 962 x 995 km, 82.9° (Epoch: 19 February)

Date Brightness Start Highest point End Pass type
(mag) Time Alt. Az. Time Alt. Az. Time Alt. Az.
24 Feb 6.3 21:25:43 10° N 21:26:15 13° N 21:26:15 13° N visible
25 Feb 6.4 21:52:05 10° NNW 21:52:51 14° NNW 21:52:51 14° NNW visible
26 Feb 5.9 20:33:34 10° NNE 20:34:43 15° NNE 20:34:43 15° NNE visible
26 Feb 6.6 22:18:54 10° NNW 22:19:29 13° NNW 22:19:29 13° NNW visible
27 Feb 5.7 20:59:26 10° N 21:01:23 21° N 21:01:23 21° N visible
28 Feb 5.9 19:42:28 10° NE 19:43:20 12° NE 19:43:20 12° NE visible
28 Feb 5.7 21:25:45 10° N 21:28:05 24° NNW 21:28:05 24° NNW visible
01 Mar 5.4 20:07:24 10° NNE 20:10:05 21° NE 20:10:05 21° NE visible
01 Mar 6.0 21:52:28 10° NNW 21:54:51 22° NW 21:54:51 22° NW visible
